Location: Pond
(37.4450°N, 88.8328°W)
Time: 07:40:02
(UTC+00:00)

Daily predictions for brighter satellites

Satellite Brightness Start Highest point End
(mag) Time Altitude Azimuth Time Altitude Azimuth Time Altitude Azimuth
DMSP B5D1-3 4.4 12:01:06 10° S 12:06:12 77° WSW 12:11:20 10° NNW
Meteor 1-21 Rocket 4.3 12:02:19 10° N 12:08:02 86° W 12:13:51 10° S
COSMO-SKYMED 1 3.7 12:04:37 10° SSW 12:08:03 23° W 12:10:42 14° NW
Cosmos 1400 Rocket 3.1 12:04:48 10° S 12:08:48 73° E 12:12:54 10° NNE
ATLAS CENTAUR R/B 3.9 12:07:40 10° SSE 12:10:41 23° ESE 12:13:38 10° ENE
BREEZE M DEB (TANK) 1.2 12:11:11 10° SW 12:13:15 90° WNW 12:16:25 10° NE
OAO 2 Rocket 3.6 12:09:08 11° WSW 12:13:44 65° S 12:18:38 10° E
NOAA 6 4.0 12:11:38 10° N 12:16:47 68° WNW 12:21:55 10° SSW
Cosmos 1814 Rocket 3.9 12:11:39 10° SSW 12:16:49 85° WNW 12:21:58 10° NNE
SL-4 R/B 4.0 12:13:33 10° SSW 12:16:51 29° SE 12:20:22 10° ENE
FALCON 9 DEB 3.0 12:14:38 10° SW 12:18:01 67° NW 12:21:24 10° NE
Cosmos 1340 3.1 12:14:51 10° N 12:18:36 64° E 12:22:18 10° SSE
Meteor 2-13 Rocket 4.5 12:12:39 10° NNW 12:18:45 66° W 12:24:49 10° S
H-2A R/B 3.9 12:16:12 10° NNW 12:19:00 21° WNW 12:21:48 10° WSW
Cosmos 1689 Rocket 3.3 12:16:48 10° SSW 12:19:08 22° W 12:21:09 12° NW
CZ-2C R/B 2.9 12:16:53 10° SW 12:20:23 29° SSE 12:23:41 10° E
Cosmos 1937 Rocket 3.5 12:15:29 10° NNW 12:20:45 72° WSW 12:25:57 10° S
Cosmos 921 Rocket 4.1 12:18:06 10° WSW 12:21:28 22° WNW 12:24:50 10° NNW
SJ 16-02 2.9 12:20:47 12° WNW 12:22:53 16° W 12:25:36 10° SW
Cosmos 1461 3.8 12:18:52 10° WSW 12:23:07 34° NW 12:27:28 10° NNE
Envisat 3.4 12:18:50 10° N 12:23:35 41° WNW 12:28:18 10° SW
PSLV R/B 4.4 12:20:01 10° N 12:23:38 36° WNW 12:27:19 10° SW
MOS 1-B 4.3 12:18:56 10° N 12:24:41 72° WNW 12:30:25 10° SSW
CENTAUR R/B 4.5 12:21:30 10° S 12:26:23 32° ESE 12:31:58 10° NE
SL-16 R/B 3.3 12:21:14 10° S 12:26:39 49° ESE 12:32:05 10° NNE
PAYLOAD B 4.2 12:21:33 10° N 12:27:07 71° WNW 12:32:40 10° SSW
BREEZE-M DEB (TANK) 3.2 12:26:05 10° W 12:29:01 49° NNW 12:37:34 10° NE
Cosmos 1844 Rocket 4.5 12:29:31 10° W 12:30:26 10° W 12:31:21 10° WSW
Cosmos 1544 Rocket 4.4 12:26:45 10° SW 12:30:27 27° WNW 12:34:10 10° NNW
Cosmos 372 Rocket 4.3 12:26:14 10° NNW 12:31:29 72° ENE 12:36:42 10° SSE
Okean 1-7 Rocket 4.5 12:27:38 10° NNW 12:31:34 29° W 12:35:27 10° SSW
CZ-4B R/B 3.3 12:26:16 10° NNE 12:31:58 89° ESE 12:37:34 10° SSW
Cosmos 1953 3.3 12:30:35 10° SW 12:33:53 25° WNW 12:37:12 10° NNW
Cosmos 2278 Rocket 2.2 12:28:16 10° NNW 12:33:55 70° WSW 12:39:31 10° SSE
SMAP 3.1 12:31:54 10° N 12:36:29 58° WNW 12:41:02 10° SSW
FengYun 1-2 T 4.4 12:31:48 10° NNE 12:37:30 86° ESE 12:43:09 10° SSW
Cosmos 2333 Rocket 3.8 12:36:16 10° WNW 12:38:51 13° NW 12:41:26 10° NNW
SWAS 4.4 12:35:38 10° SSW 12:39:52 85° WNW 12:44:10 10° NNE
Cosmos 2237 Rocket 2.6 12:36:02 10° SW 12:41:22 41° WNW 12:46:43 10° N
RESURS DK-1 3.6 23:27:16 10° SW 23:31:11 42° WNW 23:35:08 10° N
Cosmos 2227 4.5 23:28:17 10° SSW 23:33:54 74° WNW 23:39:35 10° NNE
Cosmos 1354 Rocket 4.3 23:28:38 10° SSW 23:33:57 77° WNW 23:39:18 10° NNE
CZ-2D R/B 4.3 23:33:22 10° SE 23:36:34 25° ENE 23:39:45 10° NNE
SMAP 3.4 23:32:41 10° S 23:37:18 74° WSW 23:41:58 10° NNW
Aureole 2 Rocket 4.1 23:36:15 10° ESE 23:37:30 12° E 23:38:45 10° ENE
SL-14 R/B 3.4 23:37:20 10° SSW 23:41:11 75° W 23:45:04 10° N
Cosmos 1726 Rocket 4.2 23:37:45 10° NNE 23:41:43 33° ENE 23:45:41 10° SE
Cosmos 1626 3.2 23:38:59 10° SSW 23:42:33 48° W 23:46:09 10° N
MOS 1 Rocket 3.6 23:43:49 10° NNE 23:47:50 38° E 23:51:49 10° SSE
Cosmos 1844 Rocket 3.5 23:46:31 10° SSE 23:51:22 30° ESE 23:56:15 10° NE
ISS -2.8 23:49:33 10° SSW 23:52:35 33° SE 23:54:54 15° ENE
Okean-O 3.7 23:50:51 10° ESE 23:54:24 24° ENE 23:57:57 10° NNE
TELKOM 3 2.8 23:54:43 10° SW 23:57:01 82° SE 23:58:39 19° NE
